[[{"header":{"parameterUnit":"m.s-1","parameterCategory":1,"la1":30.2991,"la2":30.254,"lo1":-89.0895,"lo2":-89.0444,"dy":0.0017,"dx":0.0017,"nx":28,"ny":28,"refTime":"2025-09-04T09:00:00:Z","depth":0,"parameterNumber":2,"parameterNumberName":"U-component_of_WINDS"},"data":[0,0,0,0,0,0,0,0,0,0,0,0,0,0,0,0,0,0,0,0,0,0,0,0,0,0,0,0,0,0,0,0,0,0,0,0,0,0,0,0,0,0,0,0,0,0,0,0,0,0,0,0,0,0,0,0,0,0,-0.1375,-0.1375,0,-0.135,-0.135,-0.135,-0.1316,-0.1315,-0.1315,-0.1314,-0.1289,-0.1289,-0.1288,0,0,0,0,0,0,0,0,0,0,0,0,0,-0.1393,-0.1393,-0.1375,-0.1375,-0.1374,-0.135,-0.135,-0.1349,-0.1316,-0.1315,-0.1314,-0.1314,-0.1289,-0.1289,-0.1288,0,0,0,0,0,0,0,0,0,0,0,0,0,-0.1379,-0.1393,-0.1375,-0.1355,-0.1352,-0.135,-0.135,-0.1349,-0.1316,-0.1315,-0.1314,-0.1313,-0.1289,-0.1289,-0.1288,-0.1304,0,0,-0.1288,-0.1288,0,0,0,0,0,0,0,0,-0.1379,-0.1378,-0.1358,-0.1356,-0.1354,-0.1335,-0.1347,-0.1334,-0.1316,-0.133,-0.1314,-0.1313,-0.1305,-0.1303,-0.13,-0.1303,-0.1302,-0.1288,-0.1288,-0.1287,-0.1287,0,0,0,0,0,0,0,-0.1381,-0.1379,-0.1365,-0.1358,-0.1355,-0.1347,-0.1344,-0.1344,-0.1322,-0.1329,-0.1326,-0.1324,-0.1304,-0.1301,-0.13,-0.1301,-0.1288,-0.1288,-0.1287,-0.1287,-0.1316,-0.1316,0,0,0,0,0,0,-0.1385,-0.138,-0.1366,-0.1364,-0.1365,-0.1347,-0.1344,-0.1342,-0.1322,-0.1319,-0.1324,-0.1322,-0.1302,-0.13,-0.1299,-0.1316,-0.1287,-0.1287,-0.1287,-0.1315,-0.1316,-0.1317,0,0,0,0,0,0,-0.1385,-0.1384,-0.1367,-0.1371,-0.1369,-0.1348,-0.1346,-0.1342,-0.1339,-0.1319,-0.1315,-0.1326,-0.1301,-0.1299,-0.1303,-0.1314,-0.1287,-0.1287,-0.1314,-0.1315,-0.1316,-0.135,0,0,0,0,0,0,-0.1386,-0.1384,-0.139,-0.1372,-0.1369,-0.1372,-0.1347,-0.1342,-0.1339,-0.1336,-0.1319,-0.1316,-0.13,-0.1304,-0.1303,-0.1314,-0.1287,-0.1313,-0.1314,-0.1316,-0.1348,-0.1352,-0.1356,0,0,0,0,0,-0.1387,-0.14,-0.139,-0.1389,-0.1375,-0.1372,-0.137,-0.1352,-0.134,-0.1345,-0.1333,-0.1316,-0.1313,-0.1304,-0.1303,-0.1314,-0.1312,-0.1314,-0.1316,-0.1346,-0.1352,-0.1356,0,0,0,0,0,0,-0.142,-0.1397,-0.1386,-0.1394,-0.1386,-0.1367,-0.1373,-0.1359,-0.1353,-0.1351,-0.1328,-0.1325,-0.1332,-0.1323,-0.1313,-0.1328,-0.131,-0.1312,-0.1334,-0.1339,-0.1343,-0.1345,-0.1287,0,0,0,0,0,-0.1428,-0.1428,-0.1408,-0.1417,-0.1414,-0.1394,-0.1392,-0.1379,-0.1369,-0.1365,-0.1353,-0.1344,-0.1341,-0.1339,-0.1335,-0.1347,-0.1343,-0.1354,-0.1358,-0.1361,-0.1363,-0.1369,-0.1374,-0.1323,-0.1323,-0.1323,0,0,-0.1445,-0.1433,-0.1434,-0.1424,-0.1415,-0.1415,-0.1391,-0.1392,-0.1392,-0.1365,-0.1368,-0.1359,-0.1347,-0.1355,-0.1358,-0.1348,-0.1376,-0.1364,-0.1367,-0.1367,-0.1371,-0.1376,-0.138,-0.1325,-0.1324,-0.1324,0,0,-0.1476,-0.1467,-0.1474,-0.1466,-0.1454,-0.1441,-0.1443,-0.1426,-0.1419,-0.1422,-0.1401,-0.1401,-0.1396,-0.1389,-0.1385,-0.1414,-0.1398,-0.1413,-0.1435,-0.1441,-0.1445,-0.1448,-0.1459,-0.1463,-0.1415,-0.1415,-0.1415,0,-0.1499,-0.1499,-0.1479,-0.1481,-0.1478,-0.1453,-0.146,-0.1453,-0.1441,-0.1439,-0.1428,-0.1422,-0.1412,-0.1418,-0.1425,-0.1423,-0.1424,-0.1415,-0.1446,-0.1449,-0.1452,-0.1462,-0.1466,-0.1417,-0.1417,-0.1417,-0.1416,0,-0.1527,-0.1527,-0.1534,-0.1522,-0.1519,-0.1524,-0.1505,-0.1504,-0.1492,-0.148,-0.1483,-0.1471,-0.1465,-0.1465,-0.1452,-0.1469,-0.1464,-0.145,-0.1431,-0.1459,-0.1468,-0.1471,-0.142,-0.1419,-0.1418,-0.1418,0,0,-0.1578,-0.1556,-0.1559,-0.1553,-0.1538,-0.1538,-0.1542,-0.1535,-0.1535,-0.1527,-0.153,-0.1527,-0.1514,-0.1509,-0.1495,-0.15,-0.1525,-0.1486,-0.1485,-0.1494,-0.1543,-0.1553,-0.1558,-0.1514,-0.1515,-0.1515,-0.1544,0,-0.1607,-0.1611,-0.1594,-0.1603,-0.1603,-0.1581,-0.1584,-0.1575,-0.1564,-0.1563,-0.1551,-0.1549,-0.1532,-0.1529,-0.1533,-0.1521,-0.1534,-0.1519,-0.1517,-0.1517,-0.152,-0.1562,-0.1573,-0.16,-0.1547,-0.1547,-0.1548,0,-0.164,-0.1634,-0.1644,-0.1628,-0.1627,-0.1631,-0.1624,-0.1622,-0.1612,-0.1604,-0.1599,-0.1583,-0.1586,-0.1568,-0.1572,-0.1562,-0.156,-0.1554,-0.1554,-0.1553,-0.1534,-0.1563,-0.1609,-0.1613,-0.1553,-0.1553,-0.1552,0,-0.1677,-0.1671,-0.1676,-0.1672,-0.1654,-0.1657,-0.165,-0.1638,-0.1636,-0.163,-0.1628,-0.1622,-0.1619,-0.1615,-0.1599,-0.1587,-0.1604,-0.1585,-0.1598,-0.1598,-0.1602,-0.1602,-0.1649,-0.1601,-0.1601,-0.1601,-0.1601,0,-0.171,-0.1716,-0.1692,-0.1695,-0.1702,-0.1682,-0.1689,-0.168,-0.167,-0.1671,-0.1651,-0.1653,-0.1631,-0.163,-0.1617,-0.1622,-0.162,-0.1614,-0.1611,-0.1616,-0.1617,-0.1614,-0.1612,-0.1602,-0.1602,-0.1602,-0.1602,0,-0.1751,-0.1735,-0.1739,-0.1722,-0.1718,-0.1724,-0.1709,-0.1712,-0.17,-0.1701,-0.1701,-0.1682,-0.168,-0.1663,-0.1657,-0.1649,-0.1659,-0.1651,-0.1662,-0.166,-0.1673,-0.1673,-0.172,-0.1726,-0.1675,-0.1675,-0.1676,0,-0.1774,-0.1778,-0.1762,-0.1761,-0.1755,-0.1754,-0.1751,-0.1732,-0.173,-0.1719,-0.1723,-0.1719,-0.1715,-0.1713,-0.1699,-0.1694,-0.1687,-0.1704,-0.1686,-0.1691,-0.1687,-0.1687,-0.1688,-0.1708,-0.1708,-0.1709,-0.1709,0,-0.1815,-0.1807,-0.1804,-0.1798,-0.1795,-0.179,-0.1783,-0.1784,-0.1763,-0.1762,-0.1759,-0.1756,-0.175,-0.1747,-0.174,-0.1733,-0.1718,-0.1715,-0.1718,-0.1723,-0.1729,-0.1727,-0.1673,-0.1714,-0.1714,-0.1713,-0.1713,-0.1713,-0.1847,-0.1851,-0.184,-0.1837,-0.183,-0.1825,-0.1826,-0.1815,-0.1812,-0.1806,-0.1795,-0.1794,-0.1784,-0.1774,-0.1768,-0.1767,-0.1758,-0.1762,-0.1763,-0.1764,-0.1767,-0.173,-0.1765,-0.1765,-0.1765,-0.1765,-0.1765,0,-0.1888,-0.188,-0.1878,-0.1869,-0.1867,-0.1853,-0.1845,-0.1845,-0.1844,-0.1836,-0.1833,-0.183,-0.1827,-0.1813,-0.1809,-0.1811,-0.1804,-0.181,-0.181,-0.1809,-0.1775,-0.1773,-0.1816,-0.1816,-0.1816,-0.1816,-0.1816,-0.1816,-0.1908,-0.1913,-0.1904,-0.1905,-0.1897,-0.1896,-0.1893,-0.1888,-0.1882,-0.188,-0.1877,-0.1868,-0.1858,-0.1852,-0.1849,-0.1845,-0.1844,-0.1853,-0.1847,-0.1816,-0.1811,-0.1806,-0.1805,-0.1853,-0.1853,-0.1881,-0.1881,-0.1881]},{"header":{"parameterUnit":"m.s-1","parameterCategory":1,"la1":30.2991,"la2":30.254,"lo1":-89.0895,"lo2":-89.0444,"dy":0.0017,"dx":0.0017,"nx":28,"ny":28,"refTime":"2025-09-04T09:00:00:Z","depth":0,"parameterNumber":3,"parameterNumberName":"V-component_of_WINDS"},"data":[0,0,0,0,0,0,0,0,0,0,0,0,0,0,0,0,0,0,0,0,0,0,0,0,0,0,0,0,0,0,0,0,0,0,0,0,0,0,0,0,0,0,0,0,0,0,0,0,0,0,0,0,0,0,0,0,0,0,1.2404,1.2404,0,1.2423,1.2423,1.2423,1.245,1.245,1.2451,1.2451,1.2468,1.2468,1.2468,0,0,0,0,0,0,0,0,0,0,0,0,0,1.2388,1.2388,1.2404,1.2404,1.2405,1.2423,1.2423,1.2423,1.245,1.245,1.2451,1.2452,1.2468,1.2468,1.2468,0,0,0,0,0,0,0,0,0,0,0,0,0,1.2399,1.2388,1.2404,1.242,1.2422,1.2423,1.2423,1.2423,1.245,1.2451,1.2451,1.2452,1.2468,1.2468,1.2468,1.2454,0,0,1.2468,1.2468,0,0,0,0,0,0,0,0,1.2399,1.24,1.2418,1.2419,1.2421,1.2435,1.2424,1.2434,1.245,1.2439,1.2451,1.2452,1.2456,1.2457,1.2459,1.2455,1.2456,1.2468,1.2468,1.2468,1.2468,0,0,0,0,0,0,0,1.2398,1.2399,1.2412,1.2418,1.242,1.2425,1.2428,1.2426,1.2443,1.244,1.2442,1.2444,1.2457,1.2459,1.246,1.2456,1.2468,1.2468,1.2468,1.2468,1.2438,1.2438,0,0,0,0,0,0,1.2395,1.2399,1.2411,1.2412,1.2411,1.2425,1.2428,1.243,1.2444,1.2446,1.2443,1.2445,1.2459,1.246,1.2461,1.2443,1.2468,1.2468,1.2468,1.2439,1.2438,1.2437,0,0,0,0,0,0,1.2395,1.2396,1.241,1.2406,1.2408,1.2424,1.2426,1.243,1.2432,1.2446,1.2449,1.2442,1.2459,1.2461,1.2455,1.2444,1.2468,1.2468,1.244,1.2439,1.2438,1.241,0,0,0,0,0,0,1.2394,1.2396,1.2392,1.2406,1.2408,1.2406,1.2426,1.243,1.2432,1.2434,1.2446,1.2448,1.246,1.2455,1.2455,1.2445,1.2468,1.2441,1.244,1.2438,1.2412,1.2408,1.2404,0,0,0,0,0,1.2393,1.2383,1.2391,1.2393,1.2404,1.2405,1.2406,1.2421,1.2431,1.2426,1.2435,1.2448,1.2446,1.2454,1.2455,1.2444,1.2442,1.244,1.2438,1.2413,1.2408,1.2404,0,0,0,0,0,0,1.2367,1.2385,1.2395,1.2389,1.2395,1.2409,1.2404,1.2415,1.2419,1.2421,1.2438,1.244,1.2432,1.2438,1.2447,1.243,1.2446,1.2444,1.2426,1.2422,1.2418,1.2416,1.2468,0,0,0,0,0,1.2361,1.2361,1.2377,1.237,1.2373,1.2388,1.2389,1.2399,1.2406,1.2409,1.2418,1.2423,1.2423,1.2423,1.2424,1.2413,1.2414,1.2405,1.2402,1.2399,1.2396,1.2388,1.2384,1.2431,1.2431,1.2431,0,0,1.2347,1.2357,1.2357,1.2365,1.2371,1.237,1.239,1.2388,1.2387,1.2408,1.2403,1.241,1.2417,1.2408,1.2404,1.2412,1.2384,1.2396,1.2394,1.2393,1.2386,1.2381,1.2377,1.243,1.243,1.2431,0,0,1.2322,1.2331,1.2325,1.233,1.2339,1.2349,1.2347,1.236,1.2365,1.236,1.2376,1.2374,1.2375,1.2378,1.238,1.2354,1.2365,1.2354,1.2334,1.2325,1.2322,1.2318,1.2307,1.2303,1.2352,1.2352,1.2351,0,1.2304,1.2304,1.232,1.2317,1.2319,1.2339,1.2331,1.2336,1.2344,1.2345,1.2354,1.2354,1.236,1.2351,1.2344,1.2346,1.2343,1.2352,1.2321,1.2318,1.2315,1.2304,1.23,1.235,1.235,1.235,1.235,0,1.228,1.2279,1.2273,1.2281,1.2282,1.2277,1.2291,1.2291,1.23,1.2308,1.2302,1.231,1.2312,1.2311,1.2321,1.2302,1.2307,1.2318,1.2334,1.2309,1.2298,1.2295,1.2348,1.2348,1.2349,1.2349,0,0,1.2239,1.2255,1.2252,1.2255,1.2265,1.2264,1.2259,1.2261,1.2259,1.2264,1.2259,1.2258,1.2268,1.227,1.228,1.2273,1.2249,1.2286,1.2286,1.2277,1.2226,1.2216,1.2211,1.2257,1.2256,1.2255,1.2225,0,1.2215,1.2207,1.2221,1.2209,1.2207,1.2225,1.222,1.2225,1.2232,1.223,1.2238,1.2236,1.2251,1.2252,1.2246,1.2253,1.2238,1.2256,1.225,1.2249,1.2246,1.2206,1.2196,1.2166,1.2221,1.222,1.222,0,1.2185,1.2188,1.2176,1.2185,1.2185,1.2181,1.2182,1.2181,1.2186,1.2192,1.2193,1.2205,1.2198,1.2214,1.2204,1.2215,1.2214,1.2217,1.2216,1.2215,1.2232,1.2202,1.2158,1.2152,1.2214,1.2215,1.2215,0,1.2154,1.2155,1.2148,1.215,1.216,1.2156,1.216,1.2166,1.2166,1.2167,1.2167,1.2167,1.2167,1.2166,1.2177,1.2188,1.2165,1.2182,1.2167,1.2167,1.216,1.216,1.2113,1.2162,1.2162,1.2162,1.2162,0,1.2124,1.2116,1.2133,1.2129,1.2119,1.2134,1.2123,1.2129,1.2134,1.2129,1.2145,1.214,1.2155,1.2151,1.2159,1.2148,1.2149,1.2151,1.2153,1.2149,1.2148,1.2147,1.2149,1.2161,1.2162,1.2162,1.2162,0,1.2087,1.2099,1.2092,1.2102,1.2104,1.2096,1.2105,1.21,1.2107,1.2101,1.21,1.2112,1.2108,1.2119,1.2117,1.2122,1.2105,1.2112,1.2104,1.2105,1.2088,1.2089,1.2037,1.203,1.2085,1.2085,1.2084,0,1.2067,1.2061,1.207,1.2068,1.2071,1.2068,1.2068,1.2081,1.208,1.2084,1.2078,1.2075,1.2074,1.2066,1.2073,1.2071,1.2076,1.2058,1.2076,1.2071,1.2073,1.2072,1.2071,1.2054,1.2053,1.2053,1.2052,0,1.2028,1.2034,1.2033,1.2033,1.2032,1.2033,1.2035,1.2032,1.2046,1.2043,1.2039,1.2038,1.2035,1.2031,1.203,1.2033,1.2044,1.2047,1.2043,1.2037,1.2032,1.2032,1.2091,1.2048,1.2048,1.2049,1.2049,1.2049,1.1998,1.1992,1.1997,1.1995,1.1997,1.1998,1.1993,1.1999,1.1997,1.1995,1.2004,1.1997,1.2,1.2,1.2001,1.1995,1.2003,1.1998,1.1996,1.1994,1.199,1.2034,1.1995,1.1996,1.1996,1.1996,1.1996,0,1.1958,1.1962,1.196,1.1961,1.1958,1.197,1.1972,1.1968,1.1963,1.1965,1.1962,1.1956,1.1952,1.1959,1.1955,1.1949,1.1954,1.1948,1.1947,1.1947,1.1985,1.1988,1.1944,1.1944,1.1944,1.1944,1.1944,1.1944,1.1937,1.1928,1.1933,1.1924,1.1927,1.1921,1.1921,1.1921,1.1922,1.1915,1.1912,1.1916,1.1919,1.1915,1.1911,1.1913,1.191,1.1902,1.1905,1.194,1.1945,1.195,1.1952,1.1901,1.1901,1.1867,1.1867,1.1867]}]]